Home   Weather   47°14'N, 8°42'E   Past weeks
Flag for Switzerland

Past Weather in 47°14'N, 8°42'E, Switzerland — Yesterday and Last 2 Weeks

Now
56 °F

Cool.


Feels Like: 56 °F
Forecast: 77 / 58 °F
Wind: 3 mph from North

Location: Zuerich-Fluntern

Current Time: Aug 22, 2019 at 2:40:23 am

Latest Report: Aug 22, 2019 at 1:00 am


Visibility: N/A

Pressure: 30.26 "Hg

Humidity: 87%

Dew Point: 52 °F

Location of 47°14'N, 8°42'ELocation

Past Weather in 47°14'N, 8°42'E — Graph

°F

47°14'N, 8°42'E Temperature Yesterday

Maximum temperature yesterday: 67 °F (at 5:00 pm)
Minimum temperature yesterday: 52 °F (at 6:00 am)
Average temperature yesterday: 58 °F

High & Low Weather Summary for the Past Weeks

 TemperatureHumidityPressure
High87 °F (Aug 9, 5:00 pm)98% (Aug 8, 6:00 am)30.37 "Hg (Aug 8, 6:00 am)
Low52 °F (Aug 14, 6:00 am)34% (Aug 18, 5:00 pm)29.75 "Hg (Aug 9, 6:00 pm)
Average64 °F77%30.03 "Hg
* Reported Aug 7 1:00 am — Aug 22 1:00 am, 47°14'N, 8°42'E. Weather by CustomWeather, © 2019

Note: Actual official high and low records may vary slightly from our data, if they occured in-between our weather recording intervals... More about our weather records

Advertising

47°14'N, 8°42'E Weather History for the Previous 24 Hours

Scroll right to see more
 ConditionsComfort  
Time TempWeatherWind HumidityBarometerVisibility
1:00 am
Thu, Aug 22
56 °FCool.3 mph87%30.26 "HgN/A
12:00 am58 °FCool.8 mph81%30.26 "HgN/A
11:00 pm
Wed, Aug 21
60 °FCool.10 mph77%30.25 "HgN/A
10:00 pm61 °FCool.10 mph72%30.25 "HgN/A
9:00 pm61 °FCool.6 mph77%30.26 "HgN/A
8:00 pm62 °FOvercast.3 mph74%30.25 "HgN/A
7:00 pm64 °FMild.6 mph64%30.24 "HgN/A
6:00 pm65 °FMild.6 mph64%30.25 "HgN/A
5:00 pm67 °FMild.7 mph61%30.24 "HgN/A
4:00 pm65 °FMild.7 mph64%30.26 "HgN/A
3:00 pm64 °FMild.8 mph69%30.27 "HgN/A
2:00 pm65 °FMild.7 mph69%30.28 "HgN/A
1:00 pm63 °FMild.8 mph74%30.29 "HgN/A
12:00 pm62 °FCool.8 mph79%30.30 "HgN/A
11:00 am59 °FCool.7 mph86%30.32 "HgN/A
10:00 am56 °FCool.3 mph95%30.34 "HgN/A
9:00 am55 °FCool.5 mph95%30.36 "HgN/A
8:00 am53 °FPartly sunny.7 mph97%30.37 "HgN/A
7:00 am52 °FCool.7 mph97%30.36 "HgN/A
6:00 am52 °FCool.5 mph95%30.37 "HgN/A
5:00 am53 °FCool.3 mph96%30.36 "HgN/A
4:00 am52 °FCool.5 mph94%30.37 "HgN/A
3:00 am53 °FCool.5 mph96%30.36 "HgN/A
2:00 am53 °FCool.5 mph95%30.36 "HgN/A
Weather by CustomWeather, © 2019

See weather overview